BLOCK DM-SL R/B (55507 NORAD) Tracking and Keplerian Element Data

This shows tracking and keplerian element data for the satellite.

Feedback or suggestion? Click here.




ElementValue
Catalog55507
NameBLOCK DM-SL R/B
Epoch Orbit26
Epoch Day61.56464575
Epoch Year2023
RAAN275.9358
Inclination0.3758
Eccentricity0.0096503
Argument of Perigee29.7081
Mean Anonmoly53.4356
Mean Motion1.03217605
Decay Rate-3E-07
L11 55507U 23016B 23061.56464575 -.00000030 00000+0 00000+0 0 9990
L22 55507 0.3758 275.9358 0096503 29.7081 53.4356 1.03217605 265



Live tracking and technical data element details for BLOCK DM-SL R/B (NORAD 55507). BLOCK DM-SL R/B can be tracked NOW for your location showing map with azimuth and elevation plus other details from your city location.







IsCatalogInMostPopularTable: catalog: 55507, numindb: -1

Insert: records affected: 1


GetName: 55507 BLOCK DM-SL R/B

Hit Count: inserted at: Mon, 05 Jun 2023 19:46:04 GMT